Total_Precipitation_Accumulation
0.59 0.83 0.87 0.74 0.82 0.89 0.81 0.76 0.72 0.61 0.51 0.48 0.42 0.38 0.38 0.35 0.29 0.24 0.19 0.14 0.12 0.12 0.13 0.13 0.14 0.17 0.18 0.18 0.19 0.24 0.29 0.32 0.34 0.42 0.53 0.62 0.72 0.90 1.11 1.17 1.22 1.35 1.37 1.40
0.62 0.64 0.52 0.57 0.68 0.78 0.74 0.65 0.63 0.53 0.41 0.37 0.39 0.38 0.37 0.31 0.28 0.21 0.16 0.13 0.10 0.11 0.12 0.09 0.10 0.12 0.12 0.10 0.12 0.18 0.27 0.36 0.42 0.48 0.62 0.77 1.00 1.11 1.25 1.40 1.39 1.41 1.47 1.50
0.50 0.44 0.41 0.50 0.63 0.71 0.72 0.60 0.50 0.46 0.40 0.36 0.37 0.43 0.41 0.34 0.28 0.22 0.17 0.14 0.12 0.10 0.09 0.07 0.07 0.08 0.10 0.09 0.11 0.18 0.32 0.51 0.72 0.82 1.05 1.33 1.58 1.66 1.58 1.57 1.61 1.60 1.64 1.70
0.56 0.41 0.41 0.51 0.55 0.57 0.67 0.47 0.37 0.38 0.37 0.40 0.31 0.41 0.37 0.34 0.33 0.26 0.22 0.18 0.15 0.15 0.13 0.11 0.11 0.10 0.11 0.13 0.22 0.38 0.62 0.92 1.17 1.32 1.52 1.72 1.83 1.87 1.80 1.81 1.79 1.77 1.70 1.62
0.57 0.42 0.41 0.46 0.45 0.42 0.53 0.42 0.36 0.37 0.35 0.32 0.26 0.30 0.29 0.30 0.37 0.34 0.33 0.31 0.29 0.27 0.21 0.21 0.24 0.25 0.30 0.40 0.60 0.89 1.14 1.38 1.53 1.58 1.68 1.88 2.04 2.19 2.20 2.08 1.93 1.82 1.78 1.71
0.45 0.38 0.40 0.44 0.40 0.36 0.41 0.43 0.43 0.40 0.39 0.40 0.27 0.24 0.31 0.32 0.35 0.40 0.42 0.37 0.34 0.32 0.31 0.37 0.47 0.59 0.73 0.84 1.02 1.24 1.38 1.52 1.52 1.52 1.58 1.71 1.90 2.06 2.08 2.09 2.05 1.93 1.78 1.68
0.45 0.41 0.38 0.36 0.38 0.37 0.39 0.47 0.56 0.55 0.51 0.42 0.26 0.34 0.35 0.29 0.29 0.36 0.39 0.38 0.37 0.36 0.43 0.59 0.74 0.87 0.99 1.10 1.21 1.25 1.24 1.29 1.30 1.32 1.36 1.44 1.50 1.53 1.59 1.70 1.62 1.49 1.36 1.31
0.36 0.40 0.33 0.27 0.26 0.30 0.32 0.32 0.45 0.51 0.44 0.39 0.31 0.47 0.44 0.33 0.28 0.28 0.30 0.36 0.46 0.59 0.69 0.79 0.90 0.98 1.02 1.15 1.21 1.17 1.15 1.13 1.06 1.00 1.05 1.07 1.12 1.17 1.20 1.22 1.17 1.09 1.04 1.01
0.27 0.32 0.26 0.22 0.21 0.23 0.24 0.23 0.27 0.40 0.37 0.36 0.36 0.50 0.48 0.32 0.26 0.25 0.26 0.34 0.50 0.71 0.95 1.10 1.10 1.00 0.91 0.95 1.03 1.01 0.97 0.93 0.85 0.79 0.82 0.85 0.92 0.95 0.93 0.91 0.86 0.84 0.78 0.78
0.23 0.30 0.29 0.25 0.23 0.22 0.20 0.22 0.29 0.43 0.46 0.46 0.43 0.53 0.46 0.34 0.30 0.27 0.32 0.41 0.59 0.81 1.02 1.28 1.40 1.28 1.01 0.81 0.82 0.80 0.77 0.80 0.79 0.75 0.77 0.77 0.70 0.65 0.66 0.69 0.63 0.62 0.67 0.71
0.16 0.24 0.28 0.26 0.22 0.20 0.19 0.23 0.30 0.39 0.40 0.52 0.71 0.77 0.61 0.51 0.45 0.44 0.49 0.55 0.62 0.89 1.18 1.32 1.37 1.24 1.06 0.79 0.70 0.69 0.66 0.70 0.77 0.70 0.72 0.71 0.61 0.49 0.47 0.47 0.45 0.45 0.49 0.55
0.12 0.20 0.23 0.20 0.19 0.17 0.22 0.27 0.36 0.51 0.54 0.50 0.63 0.71 0.54 0.56 0.62 0.57 0.62 0.71 0.73 0.78 0.83 0.86 0.97 0.98 0.92 0.79 0.71 0.76 0.80 0.79 0.72 0.65 0.62 0.58 0.51 0.44 0.43 0.41 0.38 0.40 0.45 0.47
0.09 0.17 0.24 0.22 0.22 0.22 0.34 0.40 0.33 0.43 0.55 0.55 0.66 0.70 0.48 0.50 0.59 0.60 0.68 0.75 0.77 0.72 0.60 0.54 0.65 0.79 0.74 0.67 0.70 0.78 0.91 0.91 0.83 0.70 0.60 0.56 0.52 0.49 0.47 0.42 0.41 0.41 0.48 0.59
0.06 0.13 0.17 0.20 0.22 0.29 0.55 0.65 0.44 0.47 0.62 0.51 0.50 0.54 0.45 0.46 0.53 0.58 0.65 0.70 0.68 0.58 0.48 0.42 0.41 0.43 0.42 0.44 0.48 0.60 0.85 1.04 1.01 0.91 0.77 0.68 0.61 0.54 0.48 0.44 0.43 0.42 0.45 0.51
0.04 0.08 0.09 0.09 0.12 0.18 0.37 0.43 0.34 0.31 0.31 0.34 0.33 0.36 0.46 0.53 0.55 0.56 0.58 0.51 0.42 0.35 0.30 0.26 0.22 0.22 0.23 0.28 0.35 0.45 0.72 0.92 0.93 0.92 0.80 0.66 0.55 0.45 0.43 0.46 0.49 0.46 0.41 0.44
0.03 0.05 0.05 0.06 0.06 0.08 0.11 0.08 0.08 0.10 0.16 0.23 0.27 0.37 0.44 0.46 0.46 0.48 0.47 0.36 0.31 0.25 0.23 0.22 0.19 0.16 0.12 0.12 0.17 0.27 0.46 0.62 0.68 0.74 0.70 0.55 0.49 0.43 0.39 0.42 0.48 0.49 0.39 0.38
0.04 0.05 0.07 0.07 0.05 0.07 0.06 0.04 0.09 0.13 0.15 0.19 0.29 0.42 0.48 0.50 0.55 0.84 0.87 0.55 0.37 0.32 0.27 0.27 0.25 0.22 0.18 0.15 0.14 0.17 0.24 0.33 0.40 0.45 0.45 0.36 0.34 0.41 0.42 0.45 0.44 0.38 0.31 0.34
0.04 0.05 0.09 0.08 0.07 0.09 0.06 0.04 0.10 0.14 0.14 0.14 0.16 0.19 0.24 0.36 0.51 0.67 0.75 0.61 0.43 0.39 0.30 0.26 0.23 0.20 0.16 0.13 0.12 0.13 0.15 0.18 0.20 0.20 0.17 0.14 0.21 0.30 0.32 0.30 0.28 0.23 0.23 0.29
0.02 0.05 0.08 0.08 0.17 0.15 0.04 0.03 0.06 0.08 0.07 0.05 0.06 0.07 0.08 0.12 0.13 0.15 0.20 0.24 0.21 0.17 0.13 0.09 0.06 0.05 0.04 0.04 0.03 0.03 0.02 0.02 0.02 0.02 0.03 0.04 0.05 0.06 0.06 0.06 0.07 0.11 0.15 0.20
0.02 0.03 0.05 0.07 0.12 0.09 0.03 0.01 0.02 0.04 0.08 0.03 0.02 0.02 0.02 0.05 0.09 0.08 0.14 0.09 0.03 0.01 0.01 0.01 0.02 0.02 0.01 0.01 0.01 0.00 0.00 0.00 0.00 0.00 0.00 0.00 0.01 0.01 0.01 0.01 0.02 0.03 0.06 0.09
0.04 0.05 0.05 0.06 0.07 0.03 0.01 0.01 0.01 0.03 0.04 0.01 0.01 0.01 0.00 0.01 0.02 0.02 0.09 0.07 0.00 0.00 0.01 0.01 0.01 0.02 0.02 0.01 0.01 0.00 0.00 0.00 0.00 0.00 0.00 0.00 0.01 0.01 0.01 0.02 0.01 0.01 0.01 0.02
0.02 0.03 0.03 0.03 0.04 0.03 0.01 0.01 0.01 0.01 0.01 0.01 0.01 0.01 0.00 0.00 0.00 0.01 0.04 0.06 0.01 0.01 0.01 0.01 0.02 0.02 0.01 0.01 0.00 0.00 0.00 0.00 0.00 0.00 0.00 0.00 0.01 0.01 0.01 0.03 0.02 0.01 0.01 0.02
0.01 0.01 0.02 0.01 0.02 0.01 0.01 0.00 0.01 0.01 0.01 0.01 0.02 0.01 0.00 0.00 0.00 0.00 0.02 0.06 0.02 0.01 0.02 0.01 0.01 0.01 0.01 0.01 0.01 0.00 0.00 0.00 0.00 0.00 0.01 0.00 0.00 0.01 0.01 0.01 0.01 0.01 0.01 0.02
0.01 0.01 0.01 0.01 0.01 0.01 0.00 0.00 0.00 0.00 0.00 0.01 0.01 0.02 0.01 0.01 0.00 0.00 0.01 0.04 0.03 0.01 0.01 0.01 0.01 0.01 0.01 0.01 0.01 0.01 0.01 0.01 0.00 0.00 0.00 0.00 0.01 0.01 0.01 0.01 0.01 0.01 0.02 0.02
0.01 0.01 0.01 0.01 0.01 0.01 0.00 0.00 0.00 0.00 0.00 0.00 0.00 0.01 0.01 0.01 0.01 0.00 0.00 0.02 0.01 0.01 0.01 0.01 0.01 0.01 0.01 0.01 0.01 0.01 0.01 0.01 0.01 0.00 0.00 0.00 0.01 0.01 0.01 0.01 0.01 0.01 0.01 0.02
0.00 0.01 0.01 0.01 0.01 0.01 0.00 0.00 0.00 0.00 0.00 0.00 0.00 0.00 0.01 0.01 0.01 0.00 0.00 0.00 0.00 0.01 0.01 0.01 0.01 0.01 0.01 0.00 0.01 0.01 0.01 0.01 0.01 0.01 0.01 0.00 0.01 0.01 0.01 0.02 0.02 0.02 0.02 0.03